Theta_e
321 324 326 336 344 345 345 346 346 346 346 347 347 347 347 347 347 347 347 348 348 349 348 348 348 348 348 348 348 348 348 348 348 348 348 349 349 348 348 348 347 348 348 347 348 348 349 348 348 348 349 350 349 351 351 351 350 349 349 348 349 348 348 348 348 347 346 347 348 350 348 349 351 352 349 351 354 353 353 353 353 349 347 349 352
321 322 326 329 342 343 344 345 345 345 345 346 346 346 346 346 346 347 346 347 347 348 347 348 348 349 348 348 348 348 347 348 347 348 347 347 347 347 348 348 348 347 347 347 346 347 347 347 347 348 349 349 349 349 349 349 349 350 349 349 349 348 347 346 344 344 344 344 346 347 345 346 349 350 352 353 353 353 352 352 352 349 345 353 354
322 323 324 329 340 342 342 343 343 344 344 344 344 344 345 346 345 346 346 347 347 347 347 347 347 347 348 347 348 347 348 348 347 346 345 345 345 345 346 347 346 347 348 347 346 347 346 347 346 347 348 348 348 347 348 348 347 348 348 348 347 346 344 343 341 341 341 343 345 343 342 342 344 350 352 354 353 353 352 352 352 352 350 354 352
323 323 323 331 337 340 341 341 341 342 342 342 342 343 343 343 343 344 344 344 345 345 346 346 346 346 346 346 346 345 345 345 345 344 344 343 343 343 343 344 345 347 346 346 346 346 347 347 347 346 344 344 344 345 345 346 346 346 346 346 345 344 342 340 339 339 341 342 343 341 339 336 337 345 348 351 352 353 353 352 350 351 352 351 351
323 323 322 324 328 336 338 338 338 339 339 340 340 341 341 341 341 342 342 342 343 343 342 343 343 343 343 343 343 343 343 343 343 342 342 341 341 340 341 342 343 344 345 346 346 346 346 346 344 343 341 340 340 341 341 343 343 343 344 343 343 341 339 336 336 338 340 340 340 339 335 336 337 342 348 346 352 353 351 348 348 347 347 348 349
322 321 322 321 322 330 336 337 337 337 338 338 339 338 339 339 339 339 339 340 340 340 341 341 341 341 341 341 341 340 340 340 340 340 339 338 338 338 338 339 340 341 343 344 344 343 343 342 342 340 338 336 336 337 337 339 340 341 340 340 338 337 333 330 332 336 338 337 336 335 334 335 337 339 348 348 349 351 350 348 348 348 348 347 348
321 320 321 320 321 326 336 336 337 337 337 337 338 337 338 338 338 337 337 337 337 337 337 338 338 338 338 338 338 338 338 338 337 337 337 336 335 335 335 336 337 338 340 340 340 339 338 338 337 335 333 332 331 331 331 332 333 334 335 334 334 332 329 327 328 330 333 332 330 331 333 335 336 336 346 347 347 350 349 349 348 348 348 348 347
320 320 320 319 319 329 335 335 336 335 336 337 337 336 336 336 336 336 335 336 336 335 335 336 335 335 336 336 336 336 336 336 335 334 333 333 333 332 332 332 333 334 335 335 335 334 333 332 332 330 329 328 328 327 327 328 329 329 329 329 328 328 325 323 323 325 328 325 327 329 331 333 336 336 344 348 347 349 349 349 347 347 347 348 347
319 319 320 319 320 332 334 334 334 335 335 336 336 335 335 335 334 334 334 334 334 334 334 333 333 333 333 333 333 333 333 333 332 332 331 330 330 329 329 328 329 330 331 331 331 330 330 330 329 329 328 327 327 326 326 326 327 326 326 326 325 325 323 322 319 319 317 318 322 325 328 332 334 334 341 348 346 349 348 347 348 346 346 347 347
318 318 318 317 319 332 333 333 334 335 334 334 334 334 334 333 333 333 333 333 333 333 332 332 332 331 331 331 331 331 331 330 330 329 328 328 328 327 327 327 327 328 329 330 329 329 329 328 328 327 327 327 326 326 326 327 327 326 325 326 324 324 324 323 319 313 310 312 317 320 323 331 329 331 340 348 347 349 348 347 344 344 346 347 346
316 317 317 318 318 331 332 332 332 333 333 333 333 332 332 332 332 332 332 331 331 331 331 330 330 330 330 329 329 329 328 328 327 326 326 327 327 327 326 326 325 326 327 327 328 327 327 327 326 326 325 325 325 325 325 325 323 324 324 323 323 323 322 321 317 308 307 308 311 314 318 325 322 327 339 344 347 347 348 346 344 344 347 347 346
315 316 317 318 325 331 331 331 331 332 332 332 332 331 331 331 330 330 330 330 330 330 329 329 328 327 327 327 327 326 326 325 325 325 325 325 326 326 326 325 325 325 325 325 325 325 326 326 325 325 325 324 323 323 323 323 322 322 322 322 322 321 320 319 313 309 306 305 307 313 312 315 320 327 340 343 345 346 346 346 345 346 346 346 346
314 315 316 317 320 329 329 330 330 331 331 331 331 331 330 329 329 328 329 328 328 328 327 327 326 325 325 325 325 325 325 326 326 324 323 323 324 325 325 324 324 324 324 324 324 324 324 324 324 324 323 323 322 323 323 321 321 321 320 320 320 318 317 316 310 308 308 306 309 311 313 316 321 335 342 343 343 344 345 345 345 346 346 346 347
313 314 314 316 317 326 329 329 330 330 330 330 330 330 329 328 328 327 327 327 327 327 326 325 324 323 323 323 323 323 324 324 325 324 324 324 323 323 323 323 323 323 323 322 322 322 322 322 322 322 321 321 321 321 320 320 320 319 318 318 317 315 315 311 312 306 307 308 310 314 314 320 324 334 341 343 343 344 345 344 344 345 345 345 346
313 312 313 314 317 320 326 328 328 328 328 329 329 328 328 328 327 326 326 325 325 325 324 324 323 323 322 322 322 322 322 323 323 323 322 322 321 322 322 321 321 320 320 321 321 320 320 321 320 319 319 319 319 318 318 319 318 317 316 316 314 313 313 305 305 304 305 309 309 311 310 315 326 331 336 338 341 343 343 343 344 343 343 343 343
311 311 311 311 313 315 319 324 327 327 327 327 327 327 327 326 325 325 325 325 325 324 324 323 323 322 321 320 319 319 320 320 321 321 321 320 319 320 320 320 319 319 319 319 319 319 319 319 318 317 317 317 317 317 317 317 317 316 315 313 312 312 311 307 301 301 302 305 306 309 307 312 324 328 331 333 335 336 336 337 338 339 340 341 343
310 309 310 309 309 310 314 316 320 325 325 325 325 325 325 325 325 324 324 323 323 323 322 322 322 321 321 319 318 317 316 316 317 318 318 318 317 317 318 318 318 318 318 318 318 318 318 317 316 315 315 315 315 315 316 316 315 313 313 311 310 310 309 307 300 300 301 306 306 306 306 313 322 327 328 329 331 331 331 332 332 332 333 334 336
308 308 308 307 307 308 309 311 313 315 314 320 322 323 323 323 323 323 322 321 321 321 320 319 319 319 318 317 316 315 314 314 313 314 316 316 315 315 316 317 317 316 317 317 316 316 316 315 314 314 313 313 312 313 314 313 312 311 310 310 309 309 308 305 299 300 301 306 303 306 306 317 322 325 326 327 327 328 329 329 329 329 330 330 330
306 306 307 306 307 306 307 306 307 307 309 310 309 317 321 322 321 321 321 320 320 319 318 317 315 315 315 314 313 312 311 312 311 311 313 313 312 312 314 316 315 315 315 315 315 315 314 313 312 312 311 310 310 310 311 311 310 310 309 308 308 307 305 302 298 299 300 300 303 300 306 316 320 324 325 325 326 326 327 327 327 327 328 329 329
304 305 305 305 305 305 305 304 304 304 305 306 308 310 318 319 319 319 319 319 318 317 317 315 313 312 310 310 309 307 307 306 308 306 308 310 311 311 311 313 312 313 313 313 312 313 312 310 310 310 309 308 307 306 307 308 308 308 307 307 306 303 297 297 296 298 298 299 304 299 312 315 319 322 324 324 325 325 324 324 325 325 326 326 327
301 302 303 303 303 304 303 302 302 302 303 304 305 306 312 316 316 317 316 316 315 314 314 312 310 309 306 307 303 297 296 297 299 300 305 302 307 310 309 310 309 310 311 311 311 311 310 309 308 308 307 305 304 303 302 305 305 306 306 305 302 296 296 296 296 298 298 298 302 299 312 314 317 319 322 323 323 323 323 322 323 324 324 325 325
298 299 301 302 301 301 302 301 300 300 301 303 304 305 309 311 305 307 306 309 311 310 305 300 305 300 308 299 296 298 295 295 298 306 300 302 302 308 308 308 307 307 307 308 308 308 308 307 306 305 304 303 301 292 294 298 301 303 302 301 295 294 295 296 295 295 297 296 302 304 311 313 316 318 321 321 321 321 321 322 323 323 324 324 325
296 297 298 300 300 300 300 300 300 299 300 301 302 304 303 302 301 302 304 308 305 302 299 301 296 297 297 296 297 295 294 296 297 299 301 307 303 307 305 305 305 304 304 305 306 306 306 305 304 303 302 300 292 290 291 291 291 297 297 293 292 293 294 295 295 294 295 297 297 306 308 311 314 316 319 320 321 320 320 321 322 323 323 323 324
297 297 298 299 299 298 299 299 299 298 299 299 300 301 299 298 299 299 301 300 299 299 297 296 296 296 297 296 294 295 295 298 307 306 303 296 300 305 304 304 302 301 299 298 301 302 302 302 302 300 297 294 290 290 291 290 290 290 291 291 291 292 292 294 293 293 293 297 296 305 306 309 312 314 317 319 319 319 320 321 321 321 322 323 324
297 297 296 297 298 298 298 298 299 297 297 298 298 298 297 296 296 297 298 296 297 296 296 296 295 295 295 295 295 295 295 294 294 293 292 293 291 291 291 292 292 293 296 289 290 292 292 290 290 293 290 291 290 290 290 290 291 290 290 291 291 291 292 292 292 292 292 293 296 303 304 307 310 313 315 317 317 318 318 319 320 321 321 322 323
294 295 296 297 297 298 298 298 299 297 296 296 297 298 298 295 295 296 296 296 296 295 296 295 295 295 295 295 296 294 293 292 292 292 292 291 291 290 290 290 290 290 293 289 289 289 288 289 289 290 289 290 290 290 290 292 289 289 289 290 290 291 291 291 290 291 292 292 294 301 302 304 308 310 312 315 316 316 317 318 319 320 320 321 322
294 295 296 296 297 297 297 298 298 297 296 295 295 297 296 295 295 296 295 295 294 295 295 294 294 294 295 295 294 292 292 291 291 291 291 291 290 289 289 289 288 289 290 288 288 288 288 288 288 289 289 289 289 289 289 289 288 289 289 289 290 290 290 290 290 290 290 291 295 299 300 302 306 308 310 313 314 315 316 317 318 318 319 320 321
293 294 295 296 297 297 297 298 298 298 297 295 295 297 296 295 294 298 296 297 295 295 294 293 294 294 294 294 294 292 291 291 291 291 290 290 290 290 289 288 288 288 290 289 288 288 288 288 288 288 289 288 288 288 289 288 288 288 288 289 289 289 289 289 289 289 289 290 291 296 299 301 302 305 308 310 312 314 314 316 316 317 318 319 320
293 294 294 295 296 297 297 297 298 298 298 296 295 296 296 294 295 296 295 299 294 294 294 294 293 293 294 294 293 291 290 291 290 290 289 289 289 289 288 287 288 287 288 288 288 288 288 288 288 288 287 287 287 288 288 287 288 288 288 288 288 288 288 288 288 288 288 289 289 292 297 299 301 303 305 308 310 311 313 314 315 316 317 317 318
294 294 294 295 296 297 296 297 298 298 298 296 295 296 296 294 295 296 295 298 294 293 293 292 292 292 292 293 293 291 291 290 290 289 289 289 288 289 288 287 286 287 287 288 288 287 287 287 287 287 287 287 287 288 287 287 287 287 287 287 287 287 288 288 288 288 288 288 288 290 295 296 299 302 304 306 308 310 311 313 314 315 316 316 317
295 294 294 295 296 296 296 297 297 299 298 296 295 296 296 295 295 296 295 296 294 293 293 292 291 291 292 292 292 292 290 290 290 289 288 288 288 288 287 287 286 286 287 287 288 287 287 287 287 286 287 287 286 286 287 286 286 286 287 287 287 287 287 287 287 287 287 287 287 288 290 295 297 299 301 303 306 307 309 311 312 313 314 316 316
294 294 295 295 295 296 296 297 297 298 297 296 296 295 295 295 295 295 294 295 294 293 292 291 292 291 291 291 291 291 291 289 289 288 288 288 288 287 287 286 286 286 287 287 287 287 287 287 287 287 287 287 286 286 287 286 285 285 286 286 286 286 286 286 286 287 287 287 287 287 287 290 294 297 299 301 304 305 307 309 309 311 313 314 314
296 296 295 295 294 295 296 296 297 297 297 296 295 295 295 295 295 294 295 294 293 292 291 291 291 291 291 291 290 291 291 289 289 289 290 288 288 287 287 287 286 287 287 287 287 286 286 286 286 287 287 285 285 285 287 285 285 285 285 285 286 286 286 286 286 286 286 286 286 286 287 289 289 294 296 299 301 304 306 307 308 309 311 312 312
296 295 294 294 295 296 297 297 296 296 296 296 295 295 295 295 295 294 294 293 293 292 292 290 291 291 290 290 290 291 290 289 289 288 288 287 287 287 286 285 286 286 286 286 285 285 285 285 285 285 289 285 284 284 284 284 284 284 284 285 285 285 285 285 286 286 286 286 286 286 286 287 287 288 290 296 298 301 305 307 307 308 309 309 310
297 294 294 295 295 296 297 296 297 296 297 295 295 294 295 294 294 293 293 293 292 292 291 290 290 290 290 289 290 290 289 289 288 288 287 287 287 286 286 285 286 286 285 286 285 284 285 285 285 284 283 283 283 285 284 283 283 283 284 285 284 285 285 285 285 285 285 285 285 286 286 286 287 288 290 289 293 297 301 305 307 307 308 308 308
297 296 295 295 295 295 296 295 296 295 296 295 295 295 294 294 294 294 293 292 292 291 290 290 290 290 289 289 289 290 289 288 288 287 287 286 286 286 285 286 286 285 285 285 285 285 284 285 285 283 282 282 284 282 283 283 283 283 284 284 284 285 285 284 284 284 285 285 285 286 286 286 287 287 293 289 289 292 299 301 304 306 306 304 304
298 296 295 294 294 294 296 295 295 295 295 295 294 294 294 293 292 292 293 292 291 290 290 290 290 289 289 288 289 289 288 288 287 287 287 286 285 285 285 286 286 285 284 284 284 285 284 285 284 285 283 282 282 282 282 283 283 283 283 283 284 284 284 284 284 284 286 285 284 285 285 286 288 292 288 288 289 289 294 299 302 304 303 303 303
298 297 295 295 294 294 295 295 295 295 295 295 294 293 293 292 292 291 292 291 290 290 289 289 289 289 288 288 288 289 288 287 287 286 286 286 285 285 285 285 285 284 283 283 283 283 284 283 282 283 283 282 282 282 282 282 283 283 283 283 283 283 283 283 284 288 284 283 284 284 286 287 287 288 288 289 289 290 291 294 299 300 300 301 301
298 296 295 295 295 294 295 295 294 294 294 294 293 292 292 291 289 290 290 289 289 288 289 289 289 289 288 288 288 288 288 287 287 286 286 286 285 285 285 285 285 283 283 283 283 284 283 282 282 281 283 282 282 282 282 282 283 282 282 282 283 283 283 283 284 283 283 283 286 289 288 285 286 286 286 287 288 289 290 290 290 290 291 298 300
298 296 295 294 294 293 294 294 294 294 294 293 292 291 290 290 289 288 288 289 288 288 288 289 288 288 288 288 288 287 287 287 286 286 286 285 284 284 285 284 284 283 283 283 282 282 282 281 281 281 281 283 283 282 281 282 281 281 282 282 281 282 281 283 283 282 285 283 283 285 283 283 283 283 284 286 287 286 286 286 288 287 289 293 298
296 295 294 293 293 293 293 292 293 293 293 292 291 291 290 289 288 289 290 289 289 288 288 287 287 288 288 288 287 287 287 287 286 286 285 286 284 284 284 284 284 283 283 283 282 282 282 281 283 284 281 280 281 280 281 281 279 279 279 280 280 281 283 283 282 283 282 281 281 281 282 282 282 283 283 284 284 285 285 286 286 287 288 287 289
295 294 293 293 293 293 293 293 293 293 293 292 292 292 292 291 291 290 290 289 288 288 287 287 288 288 288 287 287 287 286 286 286 285 285 285 284 284 284 284 283 283 283 283 282 285 284 282 282 280 281 280 280 281 282 279 277 277 277 278 278 280 282 281 282 281 282 282 282 282 281 282 282 283 284 284 284 284 284 285 285 286 287 287 286
296 295 294 293 293 292 293 293 293 292 293 293 292 292 292 291 291 289 290 288 288 288 288 288 287 287 288 287 287 286 286 286 286 286 285 284 284 284 284 283 283 284 283 282 283 282 281 281 281 280 279 280 280 282 280 280 277 278 278 277 275 276 280 279 279 281 282 281 281 281 283 282 282 282 283 282 282 283 284 284 284 286 286 285 285
295 294 293 293 293 293 292 292 292 292 292 292 293 292 292 289 288 288 288 288 286 288 287 286 286 286 287 287 286 286 286 286 285 285 285 284 284 283 283 283 283 284 283 282 281 281 281 280 280 281 279 278 278 279 282 279 278 278 275 276 275 276 274 275 277 280 280 279 280 281 281 281 281 281 282 282 282 283 283 284 284 285 285 285 286
295 294 293 293 293 292 292 292 292 292 292 293 292 291 290 288 287 287 287 286 286 285 285 284 285 286 286 286 286 286 286 286 285 285 285 284 283 283 283 283 283 283 282 282 281 281 281 280 281 281 279 278 278 277 279 280 279 280 277 276 275 274 274 275 277 277 278 279 280 280 281 281 280 281 281 281 282 283 283 283 284 284 284 284 285
295 295 294 294 293 292 292 292 292 292 292 292 292 290 290 288 287 286 285 286 285 284 285 285 285 285 286 287 286 286 286 285 285 285 285 284 283 283 283 282 282 282 282 281 281 280 280 280 280 280 279 278 278 278 276 280 280 281 279 277 277 276 274 276 276 274 278 280 279 279 279 279 279 280 280 280 281 281 283 283 283 283 284 284 284
296 295 294 293 293 292 292 292 292 291 292 291 291 291 289 289 288 288 288 287 287 286 287 287 287 286 286 286 286 285 285 285 285 284 284 284 283 283 282 282 282 282 282 281 280 280 280 280 281 279 279 282 279 277 278 277 277 278 279 279 279 280 277 276 274 275 273 276 277 278 278 279 279 279 280 280 280 280 281 282 282 282 282 283 283
295 294 293 293 292 292 292 291 291 291 291 291 291 291 290 289 288 288 288 288 288 287 287 287 286 286 286 286 285 285 285 285 285 284 284 284 283 282 282 282 282 281 282 281 281 280 280 281 281 280 280 281 279 278 277 277 276 277 280 278 278 279 277 277 277 276 274 272 275 278 278 278 279 279 280 279 279 280 280 280 281 281 281 282 282
293 293 293 293 293 292 292 291 291 291 291 291 291 290 291 289 289 288 288 288 288 287 286 287 286 286 285 285 285 285 285 284 284 284 283 284 284 283 282 281 281 281 282 281 280 280 280 280 280 279 280 279 279 278 277 276 277 276 276 276 276 276 276 276 276 276 275 272 273 274 276 278 278 279 279 279 280 280 280 280 281 282 282 282 282
294 293 292 292 292 291 291 291 290 291 290 290 291 290 290 290 289 288 288 288 287 285 285 285 285 285 285 284 285 284 284 284 283 283 283 283 283 282 282 281 281 281 282 280 280 280 280 280 280 279 279 279 279 279 278 277 278 277 277 277 276 276 275 275 275 274 274 275 273 273 275 274 274 276 278 279 279 279 279 280 280 280 280 280 281
291 291 292 292 291 291 291 290 291 291 290 290 290 290 290 290 289 289 288 287 286 285 284 284 284 284 284 284 284 284 284 284 283 283 283 283 282 282 282 281 281 282 282 280 280 280 280 279 279 279 279 278 278 278 281 278 278 277 276 277 276 276 275 275 274 275 274 273 273 273 274 275 274 274 276 278 279 279 280 280 279 279 279 280 280
Wind_Speed
2 4 1 4 7 10 11 11 11 11 12 12 12 13 13 12 12 12 12 12 12 13 12 11 12 12 13 13 13 13 12 13 13 13 13 13 13 12 12 11 9 10 9 9 9 9 10 9 10 10 12 12 12 12 12 12 11 11 11 11 11 12 12 13 13 12 12 12 12 13 12 11 10 8 5 6 7 7 8 7 7 4 4 4 7
6 3 1 1 7 9 10 11 11 10 10 11 11 11 12 12 12 12 12 12 12 13 12 12 13 13 13 14 13 13 13 13 13 14 13 13 13 13 12 12 12 10 9 10 9 10 10 12 11 12 13 13 13 14 14 14 14 13 14 14 14 13 13 12 12 12 13 13 12 12 11 12 11 9 6 9 8 9 9 9 9 5 3 8 8
5 3 1 1 4 7 10 10 11 10 10 10 9 9 11 12 10 10 11 12 12 12 12 12 12 12 13 13 13 13 13 13 13 12 11 12 11 12 11 11 11 11 11 12 11 12 10 12 12 14 15 15 15 14 14 14 13 14 14 14 13 12 11 11 11 11 13 12 12 12 9 10 11 9 6 8 9 10 8 8 10 8 5 10 9
6 4 2 3 5 5 11 11 11 11 11 11 10 10 9 10 10 10 10 9 10 11 11 11 10 10 10 11 11 11 11 11 12 12 11 11 11 11 10 10 10 10 11 11 12 11 12 12 14 15 15 14 13 14 14 13 12 13 13 13 13 13 13 12 12 12 12 12 11 8 6 6 6 7 6 8 8 9 6 7 9 11 12 11 12
7 4 3 3 4 6 10 11 11 11 11 11 11 11 10 9 10 10 9 9 10 9 8 9 10 9 9 10 10 9 9 11 10 11 11 12 11 11 10 9 9 9 11 11 11 13 15 15 15 14 14 13 13 11 12 11 11 12 12 12 12 12 13 13 13 13 11 10 10 6 5 6 6 10 11 7 8 9 7 7 9 11 11 11 11
6 5 4 4 3 5 11 12 12 12 11 11 11 11 10 10 9 10 9 9 9 9 9 9 9 9 9 9 9 9 9 9 10 11 12 12 12 11 11 9 9 10 10 11 11 12 12 13 13 12 12 11 11 12 11 11 11 10 11 11 12 12 13 13 13 13 12 9 7 4 4 4 4 5 12 9 7 8 7 8 9 10 10 11 11
7 4 4 4 4 5 10 13 13 12 13 13 12 11 11 11 11 10 9 9 9 9 9 9 9 9 10 10 10 10 10 10 11 12 12 12 12 11 11 11 11 10 11 12 13 12 12 12 12 11 10 10 10 11 10 10 10 10 10 10 10 11 13 13 13 13 12 7 5 4 4 4 4 4 10 8 8 7 8 8 8 8 9 9 10
5 4 4 4 3 4 11 12 12 13 13 13 13 12 12 12 11 11 10 10 10 10 10 10 9 10 11 12 12 11 11 12 12 12 11 11 12 12 11 11 11 11 11 12 12 12 12 11 11 11 11 10 10 10 10 9 9 9 9 9 9 10 11 12 13 13 13 6 5 5 4 4 5 4 9 10 8 6 6 7 7 7 7 8 7
5 4 4 4 3 6 9 12 13 13 13 13 13 13 12 12 11 11 11 11 11 11 11 10 11 11 12 12 12 12 12 12 12 12 12 12 11 12 12 12 12 12 12 12 12 12 12 12 12 11 11 11 10 10 10 9 9 10 10 10 10 10 11 11 12 13 7 6 6 5 5 5 4 4 8 11 10 6 7 5 5 4 6 6 4
5 4 4 4 4 7 9 12 12 12 12 12 12 13 13 13 12 12 12 12 12 12 12 12 12 12 12 12 12 12 12 12 12 12 12 12 12 12 12 12 12 12 12 12 12 12 12 12 12 11 11 11 10 11 10 10 10 10 10 10 11 11 12 11 11 9 6 6 7 7 6 9 5 5 8 11 10 3 6 5 3 1 3 3 5
6 5 4 4 4 9 12 13 12 12 12 13 13 13 13 13 13 13 13 13 13 13 12 12 12 13 13 12 12 12 12 12 12 12 12 12 12 12 12 12 12 12 12 12 12 12 13 12 12 12 12 12 12 12 12 12 12 12 13 12 12 12 13 13 10 5 5 6 7 6 9 13 5 4 10 12 10 5 2 4 3 1 4 6 7
6 5 5 4 6 11 12 13 13 14 14 14 14 14 14 14 14 14 13 13 13 13 13 13 13 13 12 12 12 12 12 12 12 12 12 12 12 12 12 12 12 12 13 13 13 13 13 13 13 13 13 13 13 13 13 13 14 14 14 15 15 15 15 14 6 5 5 5 5 6 7 7 7 7 14 11 9 9 3 5 7 7 7 7 7
7 6 5 5 5 9 13 15 15 15 15 15 15 15 14 14 14 14 13 13 13 13 13 13 13 13 12 12 12 12 12 12 12 12 12 12 12 12 12 12 12 12 13 13 13 13 13 14 14 14 14 13 13 13 13 14 14 14 15 15 17 17 15 15 6 6 5 5 5 6 6 5 6 11 12 11 9 9 9 9 9 10 10 10 9
8 7 6 5 5 9 13 16 16 16 16 16 15 15 15 14 14 14 14 14 14 14 14 14 14 13 13 13 13 13 13 12 12 12 12 12 12 12 12 12 12 12 13 13 13 13 13 14 14 14 13 13 13 13 13 13 14 14 15 16 16 16 16 10 9 7 7 7 6 7 6 6 6 14 14 13 11 11 12 12 10 10 10 11 11
10 7 6 5 5 5 12 13 14 15 15 15 15 15 15 15 15 14 14 15 15 15 15 15 15 14 14 14 13 13 13 12 12 12 12 12 12 12 12 12 12 12 12 13 13 13 13 14 14 14 14 14 14 14 14 14 14 14 15 16 16 16 15 6 7 7 7 7 7 7 7 6 13 14 14 15 15 15 15 15 15 15 14 12 12
7 7 5 4 4 4 6 10 12 13 13 14 15 15 15 14 14 14 14 14 14 14 15 15 15 15 15 15 14 14 13 13 12 12 12 12 12 12 12 12 12 12 13 13 13 13 13 14 14 14 14 14 14 15 15 14 15 15 16 16 16 16 15 9 6 7 6 7 7 6 7 7 16 15 14 15 15 14 15 15 16 16 15 15 16
6 5 5 4 4 3 4 4 6 11 11 11 12 13 14 14 14 14 14 14 14 14 14 14 14 14 15 15 15 14 14 13 13 12 12 12 13 13 13 13 12 13 13 13 13 13 14 14 14 15 15 15 15 15 15 15 16 15 16 16 16 15 14 11 6 6 6 7 6 7 7 6 14 15 15 15 15 15 15 15 16 16 16 15 15
6 6 6 5 4 3 2 3 4 4 4 7 9 11 13 14 14 14 14 14 14 15 14 14 14 13 13 13 13 13 13 13 13 13 13 12 13 13 13 13 13 13 13 13 14 14 14 15 15 15 15 15 15 15 15 15 15 16 16 16 16 14 12 10 6 6 6 6 7 6 6 11 17 15 16 16 16 16 16 17 16 16 16 16 16
7 7 6 6 5 4 4 3 4 4 4 4 4 7 11 12 13 13 13 14 14 14 14 14 14 13 12 12 11 11 11 12 12 13 13 12 12 12 13 13 13 14 14 14 14 15 15 15 16 16 16 16 16 16 16 16 15 15 15 15 14 12 11 7 5 5 5 6 6 7 6 15 15 15 15 16 15 16 17 17 18 18 18 17 16
6 7 7 6 6 6 4 4 4 4 4 5 5 5 9 11 13 13 13 13 14 13 13 13 12 11 11 11 9 7 7 6 10 8 11 11 11 8 12 14 14 13 13 13 13 13 14 14 15 15 16 16 17 16 17 16 16 16 16 16 13 10 6 6 5 5 6 6 5 6 10 15 15 14 14 15 14 14 15 15 16 16 17 16 16
5 7 7 7 6 7 6 5 4 4 5 5 5 5 7 11 10 12 13 13 13 13 13 11 10 10 9 8 7 5 4 4 5 5 7 5 8 8 11 12 13 12 12 12 12 12 12 13 14 14 15 15 14 14 14 15 16 16 16 15 12 7 6 6 6 5 5 6 6 6 13 14 14 14 13 13 14 13 14 14 14 15 16 16 16
9 8 7 8 8 7 8 7 6 6 5 6 4 4 5 7 5 5 6 8 9 10 8 6 7 5 7 6 5 4 4 4 4 5 4 4 4 8 9 11 12 12 11 11 11 11 12 13 13 14 14 14 13 7 7 9 13 14 13 12 7 6 6 6 6 6 5 6 6 8 16 14 14 14 14 13 13 13 13 13 13 13 14 14 15
8 8 9 11 10 8 7 8 8 7 6 5 5 5 5 5 5 5 5 6 6 6 6 6 5 5 5 5 5 5 4 4 3 3 3 4 4 8 10 11 11 11 11 11 11 11 11 12 13 13 13 11 7 6 6 6 6 9 8 7 6 6 6 6 6 6 6 5 5 12 15 15 15 14 14 13 13 14 14 14 14 14 14 14 14
12 12 11 8 9 10 10 9 9 9 8 7 6 6 5 5 6 5 6 5 5 5 5 5 5 6 6 5 6 4 4 4 6 8 6 4 6 7 9 9 10 10 10 7 8 10 10 10 11 10 6 4 5 5 5 5 6 6 6 6 6 6 6 5 6 6 6 6 6 15 15 15 15 14 14 13 13 13 13 14 14 15 15 15 15
11 7 5 10 12 11 10 10 9 9 8 7 7 7 6 6 6 6 6 5 5 5 4 4 5 6 6 6 5 4 4 6 5 5 5 5 4 4 4 4 3 4 5 4 4 4 4 4 3 4 5 5 6 6 5 5 5 5 6 6 6 6 6 6 6 6 6 6 6 15 16 16 16 15 14 13 13 12 13 13 14 14 14 15 15
5 9 13 11 12 12 11 10 10 10 10 9 9 8 8 7 7 6 6 5 6 5 5 5 6 6 6 6 6 6 6 6 5 5 5 6 5 5 4 3 3 3 3 4 4 3 3 3 3 4 4 4 4 4 4 3 4 5 5 5 5 5 6 6 6 6 6 6 6 15 16 16 16 16 15 14 13 12 12 13 13 14 14 14 14
11 14 11 10 11 11 11 10 11 10 10 8 7 8 8 7 7 7 7 6 6 6 6 6 7 6 7 7 8 7 7 6 6 6 6 6 6 6 5 4 4 3 2 4 4 3 3 3 3 3 3 4 5 5 5 5 4 4 5 4 5 5 6 6 6 6 6 6 6 13 14 15 16 16 15 14 13 13 13 13 13 13 14 14 14
7 10 10 11 12 14 12 12 12 11 10 9 9 8 7 7 8 7 7 7 7 7 7 6 7 7 7 7 7 7 8 7 6 6 6 5 6 5 5 4 3 4 3 3 5 3 4 3 3 4 5 5 6 5 5 4 4 4 4 5 5 6 6 6 6 5 6 6 5 8 13 14 15 15 15 14 14 13 13 13 12 13 13 13 14
12 12 11 11 13 13 13 14 12 13 10 10 9 8 7 7 7 7 8 7 7 7 7 7 7 6 7 7 7 8 7 7 7 6 5 6 5 5 5 4 3 3 3 3 3 4 4 3 5 5 5 6 6 6 5 4 4 5 5 6 6 6 6 6 6 6 5 6 5 6 12 13 14 15 15 14 14 14 13 13 12 12 12 13 14
16 13 12 13 11 13 15 16 15 14 12 10 9 9 9 9 9 9 8 7 7 7 6 7 7 7 7 7 8 8 8 8 8 6 7 6 5 5 5 4 4 3 3 5 2 4 4 4 4 4 5 5 5 5 4 5 5 5 5 6 6 6 6 6 7 7 6 6 6 5 10 12 13 14 15 15 15 14 13 13 12 12 13 13 13
11 13 13 12 12 13 14 14 13 12 10 11 10 10 10 10 10 9 8 8 8 7 7 7 6 6 7 8 7 7 7 7 7 7 6 6 6 6 5 4 4 3 3 4 2 3 3 5 4 5 6 5 5 5 5 5 5 5 4 5 6 6 6 6 6 6 6 6 6 5 5 10 12 12 13 14 14 14 13 13 13 13 13 13 13
14 16 14 11 11 16 15 14 14 12 12 12 10 11 11 11 10 9 9 8 8 7 7 7 7 6 6 7 7 7 7 6 7 7 7 7 6 6 5 5 5 3 3 4 3 3 4 3 4 4 4 5 5 5 5 6 6 6 6 6 6 6 6 6 7 6 6 6 6 6 5 5 9 11 11 12 12 13 13 13 14 14 14 14 14
13 14 12 12 15 15 15 15 13 13 14 14 13 11 10 10 10 10 9 8 9 8 8 8 7 6 6 7 7 7 6 7 7 7 7 7 7 7 6 5 4 4 3 3 3 3 3 4 4 3 5 5 5 5 4 3 5 6 6 6 6 7 6 6 6 6 6 6 6 6 6 5 5 8 10 11 12 13 13 13 13 14 14 14 15
12 9 10 14 13 9 10 10 13 15 15 13 11 10 11 10 9 9 8 9 9 9 8 7 7 7 7 7 7 7 6 6 7 6 6 7 6 6 6 5 4 4 3 4 4 3 4 4 3 5 4 5 5 4 5 5 5 4 4 5 5 6 6 7 6 6 6 6 6 6 6 6 6 6 6 11 13 14 15 15 15 14 14 15 15
9 9 16 19 15 14 12 11 14 14 14 13 13 12 10 10 10 9 8 9 9 9 8 7 7 7 7 7 7 7 7 7 6 7 7 7 7 6 6 6 5 4 5 3 5 3 4 4 3 5 3 4 4 3 3 4 5 6 6 5 6 6 6 6 6 6 6 6 6 5 5 5 5 5 5 6 8 12 15 16 16 16 15 15 16
16 17 15 11 14 14 14 13 14 15 15 15 13 12 11 10 9 8 8 8 8 8 8 8 7 7 7 7 7 7 7 7 7 7 8 7 7 7 6 6 5 5 5 4 4 5 4 5 3 4 4 4 4 4 3 4 4 5 5 6 6 6 6 6 5 5 5 5 5 5 6 5 5 6 5 6 6 7 12 14 15 15 14 15 15
18 15 14 14 15 15 15 15 17 18 16 14 12 9 9 9 9 9 9 9 9 8 7 7 7 7 7 7 7 7 7 7 7 7 7 7 7 7 6 6 5 6 5 4 4 3 4 5 3 3 4 3 3 3 4 4 5 5 5 6 6 6 6 5 5 5 4 4 5 4 4 5 4 5 6 5 6 6 7 12 12 12 12 12 14
15 16 16 17 19 17 16 16 15 15 13 13 12 10 9 8 7 7 7 9 8 7 7 7 7 7 7 7 8 8 8 8 7 6 6 6 6 7 6 6 5 5 5 4 4 3 4 4 4 3 4 3 3 3 4 5 5 6 6 6 7 6 6 4 4 3 4 4 5 5 4 5 5 5 5 5 5 5 5 7 10 10 10 10 14
13 16 15 15 12 13 12 13 13 14 13 11 10 8 7 6 4 6 6 7 6 6 7 7 7 7 7 7 8 8 8 7 7 7 7 7 7 6 6 5 6 6 5 5 4 4 3 3 4 3 3 3 2 1 2 4 6 6 6 7 6 7 6 3 2 3 3 2 3 3 4 6 5 5 5 5 5 4 5 5 5 5 6 9 12
12 13 14 13 14 12 11 11 13 13 11 10 9 8 8 9 9 5 5 7 7 7 7 8 7 7 7 8 8 8 7 8 7 7 7 7 7 7 7 6 6 6 6 6 5 4 4 4 3 3 3 2 2 2 3 4 4 5 7 4 5 7 5 3 2 2 0 3 4 4 5 4 4 5 5 5 5 5 5 4 4 5 4 6 9
11 13 14 15 16 17 16 17 14 14 13 13 12 12 12 9 7 11 13 11 10 8 7 7 8 8 8 9 8 8 8 8 7 7 8 7 6 6 7 5 6 6 6 6 5 5 4 4 3 2 3 3 2 3 4 2 6 6 2 2 5 5 4 2 2 1 2 6 3 3 3 4 4 6 5 5 5 6 6 6 6 6 6 5 5
13 14 17 19 17 16 18 16 13 15 15 15 15 14 14 15 15 15 12 10 10 11 11 9 10 8 9 8 8 7 8 8 8 7 7 8 8 7 7 8 7 6 5 4 5 4 4 4 4 3 1 2 1 1 4 3 6 3 7 9 4 7 3 3 1 2 7 6 4 2 3 3 5 5 5 6 6 6 6 6 6 6 5 4 5
17 19 19 16 16 16 15 14 15 15 15 15 14 14 12 9 9 7 10 7 5 6 6 6 6 8 8 8 8 7 8 7 8 8 8 8 8 8 8 7 7 7 6 6 6 5 5 5 4 6 4 2 2 2 3 5 1 2 1 2 5 8 6 4 3 7 9 4 2 3 4 3 4 4 4 4 5 5 5 5 6 6 5 5 6
11 11 12 16 14 14 14 15 15 14 14 14 14 11 9 6 4 5 5 6 5 5 4 5 5 6 8 8 8 9 8 8 8 8 7 7 8 8 7 7 7 7 7 8 7 6 5 4 4 4 5 4 2 1 2 3 1 1 4 1 2 2 4 1 6 10 1 3 2 4 2 3 3 3 3 3 4 4 5 5 5 6 6 6 6
13 15 15 16 14 17 16 16 15 16 14 14 13 10 9 8 6 6 5 5 4 5 5 6 8 8 7 9 11 9 9 9 9 9 8 9 7 7 8 8 7 7 6 7 7 7 6 5 5 5 4 6 4 2 0 1 1 0 3 2 3 2 2 4 6 7 2 5 4 4 3 2 3 3 3 3 3 4 4 4 5 5 6 6 5
14 15 15 16 14 14 14 15 13 13 13 14 14 12 13 13 11 10 10 9 9 10 15 17 13 13 14 8 7 9 10 9 9 9 9 8 9 8 8 8 8 7 7 7 6 6 5 5 6 6 5 4 5 5 2 0 1 1 1 1 1 3 3 3 2 6 3 5 4 2 3 4 4 5 3 3 3 4 4 5 5 7 7 6 4
15 11 11 13 13 14 15 16 15 13 12 13 14 12 12 12 16 17 16 16 16 13 10 7 10 8 7 10 9 8 9 10 9 9 9 8 8 8 8 8 7 7 6 6 7 7 7 6 5 5 5 5 5 4 6 4 1 1 1 1 0 1 2 1 3 3 9 3 2 3 3 4 5 4 4 3 3 4 4 4 5 7 6 5 4
11 10 11 11 14 15 15 15 12 12 12 13 15 15 15 15 15 14 13 14 16 14 11 10 8 8 9 10 9 9 9 9 10 9 9 8 8 8 8 7 7 7 7 7 7 6 6 4 5 5 5 6 6 6 5 5 5 2 1 0 0 0 1 2 2 3 4 9 14 7 4 2 5 6 4 5 4 6 7 6 6 5 5 4 5
9 13 14 13 12 12 13 13 13 13 12 15 16 16 15 15 15 13 13 13 11 7 7 7 9 9 11 8 9 9 9 9 9 10 9 9 8 8 8 7 7 7 6 6 6 7 8 8 7 6 6 5 5 4 5 6 5 5 3 1 1 2 2 2 3 3 5 3 9 6 13 9 6 10 10 3 5 7 7 7 5 5 4 6 5
10 9 8 10 11 11 13 14 14 13 13 15 16 17 16 13 14 15 17 13 9 6 8 9 9 9 12 11 10 10 10 9 9 9 9 9 9 8 8 8 8 7 7 7 7 7 7 7 7 7 7 6 4 5 6 5 5 4 4 5 3 1 0 2 2 3 3 7 9 7 9 12 14 8 11 14 12 7 5 4 4 4 6 7 6
7 9 10 11 11 13 14 16 16 13 14 16 16 18 16 15 16 17 17 15 13 10 10 11 10 10 13 12 12 11 9 10 9 9 10 10 9 8 8 8 7 7 7 8 8 8 8 7 7 7 7 8 6 6 4 4 5 4 3 5 5 5 5 4 3 3 2 4 5 8 7 6 8 14 9 8 8 11 11 7 5 5 7 6 6
Wind_Direction
223 155 229 273 131 138 129 121 117 119 117 117 117 118 120 112 110 108 108 106 107 106 107 106 103 105 100 103 101 100 96 87 82 78 75 72 70 66 61 57 63 63 63 53 69 72 67 70 74 64 66 57 52 51 49 50 46 46 42 43 41 40 37 32 25 8 357 354 353 358 359 359 358 345 6 54 65 55 41 25 20 5 358 5 16
176 205 206 208 139 146 131 124 118 116 118 116 113 114 114 111 109 108 107 110 109 107 108 106 104 101 99 97 97 94 94 89 84 76 75 72 67 64 60 59 63 68 70 82 68 75 79 71 63 67 61 57 50 44 45 44 42 42 42 42 40 40 36 30 21 4 355 353 354 359 355 356 356 354 347 67 68 58 41 25 19 11 326 2 15
152 153 176 189 149 154 142 137 135 131 126 120 115 113 115 109 110 111 106 106 106 107 106 107 106 102 101 98 96 94 92 86 82 81 79 75 70 59 55 59 64 65 67 65 71 75 76 80 73 58 52 48 48 46 44 42 40 36 38 36 35 32 30 26 18 8 356 355 0 3 354 352 350 350 51 75 67 63 49 26 12 8 6 20 17
138 158 146 150 145 160 144 148 149 143 140 134 129 125 127 124 130 122 118 120 113 106 99 95 97 101 101 102 96 92 88 88 84 82 81 77 70 62 59 58 57 62 68 70 67 65 71 69 61 55 49 45 47 47 40 43 44 40 37 32 25 20 18 16 12 7 2 359 4 11 358 352 342 331 340 65 66 67 63 37 22 26 25 24 20
145 160 154 137 158 159 156 155 152 151 146 143 142 138 135 138 131 124 128 128 121 119 115 107 101 103 104 102 99 98 95 91 88 85 84 77 72 65 61 62 58 53 54 55 53 50 55 62 67 58 48 42 38 44 39 32 34 38 34 27 20 16 13 11 5 2 1 5 5 14 359 353 350 334 358 20 96 87 65 54 37 22 16 16 15
152 159 151 146 163 156 153 153 153 150 141 141 143 140 133 135 135 131 135 131 122 124 118 109 103 102 104 105 104 101 96 92 91 88 82 78 72 68 62 63 62 58 56 56 56 53 48 50 54 55 50 45 42 38 36 30 30 29 25 20 16 15 12 7 3 359 355 4 14 3 358 350 341 337 336 356 85 90 77 55 40 27 20 19 15
149 159 149 153 159 163 151 154 149 147 146 141 138 134 137 121 121 118 118 126 126 122 119 116 112 112 108 105 103 101 98 96 90 85 81 79 77 72 67 65 62 62 62 61 60 61 58 57 60 64 58 50 45 42 40 37 34 32 30 25 18 15 11 4 0 357 356 2 359 1 354 344 345 337 332 8 19 85 72 53 41 31 26 21 15
136 151 153 151 164 188 150 151 148 148 144 139 134 133 132 123 121 121 125 121 118 118 121 118 120 109 98 96 95 94 91 88 86 83 81 79 76 72 68 62 62 62 63 62 61 60 59 59 59 59 56 50 45 44 42 41 37 34 32 27 23 19 11 5 0 355 353 358 354 346 348 349 343 344 336 352 355 74 70 59 45 30 23 24 11
149 157 148 151 174 169 155 151 151 150 142 136 133 131 125 123 125 127 126 123 121 122 122 119 109 101 99 96 95 92 90 88 85 83 80 77 74 73 70 65 60 60 63 63 61 60 58 57 54 52 51 47 44 42 40 40 39 33 29 25 21 17 12 6 2 356 353 349 342 341 340 343 354 344 331 346 355 99 93 78 47 27 17 19 358
156 156 148 151 175 165 151 157 152 146 139 134 130 129 128 127 130 131 129 126 123 120 113 108 105 101 100 98 94 92 89 87 84 81 80 77 75 72 70 68 65 60 60 62 62 60 58 58 55 51 49 45 43 41 41 40 38 32 28 26 19 14 10 5 4 356 349 342 339 337 336 347 348 347 334 351 355 110 105 111 112 51 327 2 5
156 160 153 154 178 165 163 161 155 147 143 139 137 136 135 134 133 132 129 126 122 119 115 111 107 104 100 98 96 94 90 87 84 82 80 78 76 74 71 69 67 64 61 61 59 59 56 55 53 51 47 44 41 41 41 38 34 30 27 24 20 16 11 6 8 353 351 344 338 337 337 345 347 332 333 342 348 29 101 113 117 311 359 5 7
159 162 159 159 179 172 169 162 157 153 148 146 144 142 140 138 136 133 130 127 124 120 117 113 109 106 105 103 101 98 94 91 89 86 83 80 79 77 75 72 70 67 64 61 59 56 53 49 48 47 46 45 44 44 41 37 34 30 26 23 21 17 13 12 16 1 353 351 345 341 338 340 337 327 335 337 343 352 356 3 0 9 359 357 359
160 162 163 167 176 181 168 165 161 156 153 151 148 145 142 140 137 134 131 128 126 123 121 118 114 112 108 106 104 100 98 93 91 89 86 82 80 77 75 73 70 68 65 62 59 56 54 50 48 46 45 46 45 43 40 38 35 32 29 26 24 22 19 15 14 10 2 358 354 348 346 340 337 333 352 349 342 345 353 0 359 356 357 355 351
158 162 165 170 175 176 170 168 164 160 156 153 150 147 144 143 142 140 138 136 133 131 128 125 122 118 116 113 109 106 102 99 94 92 89 85 82 80 79 76 73 70 68 66 63 61 57 56 52 48 48 47 46 43 40 40 38 35 33 30 29 26 23 14 11 9 6 2 358 355 357 349 338 357 8 8 3 6 10 9 7 4 1 359 355
156 161 164 170 178 174 173 168 165 161 158 154 151 151 150 149 147 146 144 142 141 138 136 133 130 127 122 118 115 112 108 104 100 95 93 90 88 88 86 81 78 76 73 70 67 63 61 59 56 52 50 48 46 43 41 41 39 38 35 33 30 28 27 19 13 9 7 5 2 1 358 349 350 359 6 8 12 16 19 17 18 20 17 16 13
152 155 153 169 177 181 173 171 164 161 159 156 155 154 153 151 148 147 145 143 141 140 138 136 133 130 127 121 119 116 113 109 106 102 97 93 91 88 87 84 80 77 74 72 68 64 62 60 56 53 49 46 43 41 39 38 37 36 35 33 30 28 26 29 17 15 8 7 5 4 353 342 352 359 4 5 7 7 8 8 7 8 7 7 8
151 150 151 169 177 178 175 163 162 158 156 154 155 154 152 151 150 148 147 145 143 141 139 137 134 131 127 123 118 114 112 110 107 104 98 92 89 85 83 82 77 72 69 70 66 63 62 61 57 53 49 45 41 37 36 34 33 32 32 31 30 28 26 26 21 16 9 10 9 1 350 335 357 0 4 5 4 3 4 3 2 1 359 356 355
158 157 163 168 174 169 145 135 143 141 143 148 151 151 153 153 151 149 148 147 147 143 140 136 132 126 121 119 117 114 110 106 103 101 95 87 82 79 77 76 72 67 64 63 61 59 58 56 52 50 48 44 42 38 36 35 32 31 29 26 23 24 24 26 23 13 11 10 9 357 345 357 2 4 6 5 4 3 2 360 357 357 354 351 349
164 168 166 171 180 165 151 122 130 136 134 138 144 153 154 152 150 149 149 150 147 143 139 132 126 123 120 116 111 105 100 96 93 93 92 85 78 70 72 71 67 63 60 58 57 54 53 49 47 45 42 40 37 33 29 29 29 28 27 23 18 16 17 21 21 14 14 7 7 359 336 2 1 5 6 8 7 5 4 1 358 355 354 351 348
174 177 178 187 177 171 165 158 155 161 154 153 158 154 151 150 152 153 153 150 147 144 139 133 123 116 115 114 107 98 92 86 83 74 76 74 68 71 72 72 68 66 63 63 61 59 57 53 50 47 45 42 36 29 23 23 22 21 20 17 14 13 13 11 11 11 9 4 7 349 346 3 2 3 6 8 7 7 6 2 358 354 351 349 347
192 195 187 188 186 176 174 167 176 175 171 161 162 154 155 152 155 156 153 150 147 145 139 130 123 119 114 113 110 106 97 86 78 76 65 60 52 57 78 79 75 72 71 70 68 66 65 61 57 53 51 46 37 28 21 18 18 17 15 13 11 12 5 6 5 2 6 356 0 338 355 359 0 2 2 4 4 4 2 359 357 353 349 347 345
192 195 202 189 184 189 181 176 174 186 179 170 165 164 161 151 152 152 150 150 146 139 133 138 136 134 124 111 111 107 98 90 79 72 63 56 42 71 82 89 84 76 75 75 73 69 66 63 59 55 51 47 42 34 20 11 10 11 9 9 10 6 1 359 1 359 359 351 358 339 355 355 357 358 358 359 0 1 357 356 356 354 350 347 344
201 201 203 195 190 183 181 180 182 182 181 174 169 171 159 149 154 154 157 149 148 144 148 142 138 135 132 125 113 106 107 100 99 99 89 89 88 90 92 93 87 79 73 74 74 70 65 63 59 55 50 48 45 38 26 13 3 2 4 4 4 1 356 357 354 356 351 345 352 342 353 352 354 354 354 355 355 358 355 354 353 351 351 349 346
203 198 193 188 186 187 188 184 181 181 177 176 171 170 164 157 162 165 159 155 153 154 149 143 138 139 141 134 123 123 114 113 108 96 84 76 76 79 81 81 89 88 78 61 60 64 61 54 57 56 49 48 53 45 32 16 7 358 356 359 357 352 355 351 349 345 346 343 340 342 349 350 350 349 350 350 352 353 352 352 352 352 350 348 346
198 176 177 195 193 189 182 185 180 181 180 177 171 175 169 160 170 171 162 159 157 156 152 141 144 145 143 134 135 124 114 108 109 109 112 108 97 91 90 89 92 97 101 89 82 70 64 52 42 43 43 43 41 34 32 19 6 356 354 349 349 348 345 345 342 340 340 340 333 340 345 346 346 346 345 345 347 348 351 353 352 351 350 347 345
170 185 200 192 195 190 184 181 179 184 185 178 177 172 163 170 174 176 163 167 164 166 159 152 154 154 145 143 135 126 125 124 126 127 127 126 120 124 128 129 111 117 122 108 93 89 74 75 64 55 47 53 56 46 37 34 9 358 350 349 347 343 341 336 337 336 332 334 330 338 342 342 341 342 342 342 343 347 351 353 352 351 351 349 348
195 205 193 195 190 190 185 176 184 183 187 183 171 169 176 175 171 172 164 175 172 166 171 165 166 160 152 152 145 145 141 142 141 143 144 143 142 146 146 144 135 124 128 109 93 87 87 74 69 65 67 54 44 37 28 22 17 1 352 348 346 341 337 332 332 330 328 329 329 334 337 337 337 338 340 341 344 348 351 352 352 353 352 351 352
200 204 195 193 188 192 185 179 184 183 184 181 174 178 176 172 177 173 175 174 169 177 178 177 168 164 158 159 152 151 151 150 156 153 158 147 153 149 143 135 129 122 118 105 96 77 67 60 61 50 46 45 44 34 29 20 9 8 356 349 344 342 337 332 328 327 327 327 329 327 332 334 335 336 338 342 346 348 351 352 354 354 353 353 353
208 203 196 194 195 189 184 187 183 185 183 177 181 180 176 176 174 176 180 178 178 182 177 171 171 168 164 163 157 153 153 154 157 160 149 149 149 141 135 131 122 120 100 75 88 91 71 68 62 60 52 44 37 27 22 14 9 5 3 347 343 338 334 331 328 326 327 326 325 321 329 332 334 335 339 343 346 349 351 354 354 356 356 355 355
209 197 193 201 191 186 189 190 185 183 180 176 182 180 181 181 184 183 182 177 183 178 173 176 176 166 169 169 165 158 161 160 158 156 150 152 146 135 125 124 111 113 92 83 83 86 90 70 68 64 60 49 42 22 24 7 2 360 358 346 337 331 326 324 324 325 325 327 323 320 324 327 330 334 338 340 344 348 352 353 356 357 357 356 356
193 202 201 199 190 186 195 192 187 183 176 182 182 185 181 187 186 182 180 183 176 171 178 178 176 177 172 167 163 159 158 157 156 156 149 147 141 133 127 124 103 100 101 94 81 95 86 83 79 68 56 48 39 25 23 7 358 354 351 344 329 326 322 319 313 316 322 320 319 315 315 319 324 329 333 337 342 346 348 353 355 357 357 358 358
196 206 201 188 185 196 192 191 188 182 180 185 184 185 188 187 184 180 184 179 171 175 177 178 182 181 170 168 163 161 158 160 157 154 151 147 141 134 138 120 122 117 106 110 89 78 88 87 76 72 67 62 43 30 18 14 354 345 342 336 328 324 319 317 314 318 319 319 318 314 313 315 319 323 327 331 338 343 347 352 355 355 356 357 358
210 203 190 183 194 192 190 192 186 184 185 187 187 188 185 185 181 186 182 172 176 173 179 183 182 179 171 168 163 160 161 160 161 156 152 146 141 135 130 131 135 123 110 109 92 79 73 72 58 63 60 55 45 24 21 20 359 339 338 325 328 319 314 314 312 316 321 317 315 313 314 318 318 321 325 330 335 339 345 351 354 354 356 356 355
200 189 178 195 195 188 190 185 188 188 189 187 186 185 186 186 183 183 178 172 177 176 182 180 178 176 172 167 161 162 159 161 156 155 151 144 139 136 135 138 140 123 114 100 91 94 91 79 74 67 55 52 40 22 16 0 345 329 325 314 313 307 311 308 310 313 315 311 308 312 314 317 322 324 326 331 335 338 341 345 348 352 352 353 353
187 187 192 197 183 186 183 187 189 190 186 189 188 188 185 183 181 180 179 178 175 179 178 175 177 177 169 167 165 163 162 163 164 155 155 146 140 139 139 148 143 131 112 119 114 96 96 87 83 76 58 50 44 32 23 352 334 331 323 319 307 310 304 299 309 313 313 306 310 310 313 312 314 321 323 329 331 335 334 336 339 343 347 351 350
196 197 197 180 187 187 185 187 185 188 190 189 188 186 184 182 181 179 175 179 174 178 177 179 177 170 171 168 168 164 166 166 164 161 150 150 145 146 151 147 144 127 125 121 106 102 95 88 76 93 71 40 33 10 15 344 330 319 314 310 302 302 299 300 306 308 304 307 310 316 318 319 322 322 329 330 329 327 330 333 336 342 349 350 347
198 191 187 185 189 186 186 186 186 189 188 187 183 183 178 179 181 181 178 177 179 178 176 171 171 174 173 170 170 167 168 168 167 164 150 149 146 143 154 151 143 133 128 114 105 118 107 101 80 76 96 81 47 12 349 347 327 316 309 304 300 300 294 303 304 299 308 312 315 315 318 320 322 326 326 323 325 325 325 329 336 343 347 346 345
197 192 189 185 187 185 186 188 187 186 183 181 180 179 177 170 176 178 177 182 185 176 171 170 177 178 171 174 172 168 169 169 167 162 149 148 146 147 150 148 138 130 126 117 118 105 103 110 95 67 82 80 45 21 347 336 327 316 314 305 302 295 287 299 297 305 315 319 328 329 320 318 328 326 324 323 321 324 329 332 339 342 343 342 342
195 193 189 190 183 182 182 185 180 181 180 175 171 165 157 153 150 166 178 186 183 177 169 179 181 174 180 173 171 172 171 169 165 160 149 149 147 148 147 150 139 136 131 130 121 115 105 88 111 81 53 87 102 12 335 324 320 313 306 302 296 291 289 278 289 296 308 313 322 319 329 331 331 327 326 327 326 334 337 335 335 333 331 333 341
193 188 186 183 183 179 181 181 182 176 169 166 159 159 159 166 171 169 184 200 188 178 184 185 174 182 180 175 177 173 171 168 166 162 154 153 151 154 150 150 148 143 144 143 147 139 135 113 116 106 69 30 28 40 9 348 316 301 297 301 289 290 293 278 260 269 59 351 322 320 329 323 338 332 333 330 338 336 334 327 325 316 321 334 342
190 184 182 186 184 181 176 184 179 172 171 171 173 169 173 175 181 191 197 188 186 180 184 185 184 186 181 181 178 172 170 167 167 163 162 155 153 152 150 157 156 156 156 161 157 152 152 145 133 114 116 75 32 10 3 39 11 329 262 277 315 294 304 299 261 144 2 332 334 343 337 347 339 339 332 337 338 335 332 330 325 326 326 335 330
197 186 188 189 185 180 184 181 173 178 181 178 177 181 185 185 183 192 186 180 179 183 190 191 190 183 183 181 176 175 172 172 169 166 161 160 158 162 165 167 164 164 162 150 149 153 143 130 135 81 40 119 121 42 349 59 22 40 329 337 333 326 337 36 67 317 348 345 330 9 352 354 333 327 332 344 333 331 325 320 318 316 313 318 312
189 190 191 181 182 184 186 176 179 178 183 181 178 187 186 185 184 176 178 175 194 193 186 181 169 181 186 180 176 176 174 174 171 170 166 171 168 164 171 165 166 162 152 154 157 157 157 150 152 138 108 51 91 46 44 65 132 279 224 331 340 8 334 356 321 345 336 314 333 14 356 336 320 316 321 335 319 317 314 311 311 307 300 301 299
190 192 183 186 185 187 183 179 180 181 181 184 185 183 171 145 118 123 136 141 169 160 156 154 173 166 186 184 185 180 179 175 174 172 173 173 171 172 164 168 173 173 164 159 163 165 156 149 140 135 130 102 93 74 69 82 124 84 11 74 277 68 334 323 344 304 274 300 302 345 356 320 303 308 331 313 302 301 297 302 300 296 291 289 290
193 190 187 186 186 187 183 178 178 183 183 180 177 158 136 122 109 94 100 89 79 140 156 194 191 186 176 192 192 178 178 177 177 179 175 176 175 172 172 172 171 174 164 160 165 168 165 159 151 140 144 141 139 135 277 107 106 168 143 74 352 9 243 281 339 278 333 341 341 319 304 302 295 283 283 275 269 278 282 290 288 286 284 285 287
198 197 190 187 180 180 177 178 179 182 182 178 171 161 165 161 154 153 165 182 187 180 196 197 185 192 197 174 170 183 180 177 180 180 180 174 178 178 174 170 174 173 170 164 153 144 158 155 167 154 150 154 139 139 156 318 117 159 173 155 161 199 273 280 37 304 302 266 237 262 294 286 272 287 279 280 292 292 286 290 293 288 285 285 281
206 184 180 185 181 177 179 179 180 181 178 174 169 167 169 176 180 184 185 187 193 208 202 184 190 189 164 179 183 179 184 180 184 182 182 180 177 177 177 178 174 170 162 150 158 166 165 166 160 149 165 153 131 145 168 177 25 4 135 194 126 105 138 14 266 324 319 326 277 294 278 252 277 287 286 264 278 283 277 272 282 281 282 279 275
186 169 181 178 180 178 177 180 179 178 176 172 176 177 178 183 188 192 192 197 201 200 184 188 175 172 179 182 178 185 185 186 181 186 182 181 179 178 177 174 172 172 164 167 164 162 154 156 159 162 153 160 165 153 166 162 144 210 119 98 293 319 168 193 189 214 265 303 312 295 209 305 321 290 273 292 296 291 294 285 276 272 270 266 277
168 181 182 179 175 175 176 176 180 177 177 177 179 186 187 186 189 189 198 209 202 190 172 168 174 176 182 180 184 184 185 188 187 181 185 183 180 180 177 175 173 173 168 159 160 162 165 160 157 151 165 174 171 163 138 171 154 175 138 276 147 222 249 222 203 170 212 257 280 286 312 329 320 303 308 284 286 282 274 274 268 268 267 272 276
183 173 167 166 171 169 176 178 184 181 179 182 185 188 189 185 191 197 201 198 187 169 166 177 179 178 187 185 186 183 187 186 186 186 182 184 182 177 179 180 177 171 169 167 161 164 166 165 164 163 163 168 176 158 164 167 168 170 166 162 162 168 273 281 229 199 243 215 253 277 295 309 319 317 320 314 315 297 277 260 273 274 269 271 269
168 163 165 169 171 174 178 183 187 181 181 185 185 190 191 192 198 198 200 196 187 173 171 186 181 181 192 189 187 190 184 188 182 188 186 182 182 178 180 181 175 174 168 168 175 172 171 167 166 163 168 167 174 167 161 163 161 165 177 176 195 188 199 198 202 203 216 263 293 271 275 270 286 302 298 295 304 300 296 290 278 257 265 268 267